Hourly Data Report for September 16, 2017

All times are specified in Local Standard Time (LST). Add 1 hour to adjust for Daylight Saving Time where and when it is observed.

FREDERICTON
NEW BRUNSWICK

45°52'08.000" N
66°32'14.000" W
20.70 m
8101505
71700
YFC

Download Data

Hourly Data (September 2017)
Hourly Data Report for September 16, 2017
Temp Definition
°C
Dew Point Temp Definition
°C
Rel Hum Definition
%
Wind Dir Definition
10's deg

Wind Spd Definition
km/h
Visibility Definition
km
Stn Press Definition
kPa
Hmdx Definition


Wind Chill Definition


Weather Definition


TIME
00:00 Legend Double Dagger 14.9 14.4 97 20 11 16.1 101.73     LegendNANA
01:00 Legend Double Dagger 14.2 13.9 98 17 9 0.4 101.75     Fog
02:00 Legend Double Dagger 14.2 13.9 98 21 11 1.0 101.73     Fog
03:00 Legend Double Dagger 14.3 14.0 98 21 9 0.6 101.74     Fog
04:00 Legend Double Dagger 14.5 14.4 99 24 4 0.4 101.77     Fog
05:00 Legend Double Dagger 14.7 14.6 99 20 5 0.4 101.72     Fog
06:00 Legend Double Dagger 14.8 14.7 99 23 9 2.0 101.76     Fog
07:00 Legend Double Dagger 14.9 14.8 99 19 9 0.4 101.76     Fog
08:00 Legend Double Dagger 15.0 14.9 99 22 11 2.0 101.81     Fog
09:00 Legend Double Dagger 15.5 15.3 99 19 11 3.6 101.82     Fog
10:00 Legend Double Dagger 16.7 15.7 94 22 8 16.1 101.77     LegendNANA
11:00 Legend Double Dagger 19.5 16.5 83 LegendMM 4 16.1 101.72     LegendNANA
12:00 Legend Double Dagger 23.1 17.2 69 LegendMM 4 16.1 101.68 29   LegendNANA
13:00 Legend Double Dagger 25.7 17.1 59 27 5 16.1 101.62 31   LegendNANA
14:00 Legend Double Dagger 27.3 16.4 51 27 9 16.1 101.58 32   LegendNANA
15:00 Legend Double Dagger 27.8 15.9 48 LegendMM 4 16.1 101.56 32   LegendNANA
16:00 Legend Double Dagger 27.5 16.6 51 25 11 16.1 101.56 33   LegendNANA
17:00 Legend Double Dagger 27.4 15.4 47 29 8 16.1 101.57 32   LegendNANA
18:00 Legend Double Dagger 24.5 17.1 63 35 8 16.1 101.61 30   LegendNANA
19:00 Legend Double Dagger 22.1 17.3 74 2 5 16.1 101.65 28   LegendNANA
20:00 Legend Double Dagger 19.6 15.1 75 7 22 16.1 101.79     LegendNANA
21:00 Legend Double Dagger 17.3 13.7 79 5 8 16.1 101.86     LegendNANA
22:00 Legend Double Dagger 16.2 12.8 80 3 13 16.1 101.89     LegendNANA
23:00 Legend Double Dagger 15.1 12.3 83 3 13 16.1 101.92     LegendNANA

Notes on Data Quality.

Legend

  • E = Estimated
  • M = Missing
  • NA = Not Available
  • ‡ = Partner data that is not subject to review by the National Climate Archives
Date modified: